Dewpoint
15 14 13 14 18 19 23 23 24 19 21 18 13 13 18 18 13 15 21 25 24 24 25 27 29 30 31 32 34 37 38 38 39 39 40 40 39 39 38 38 39 39 39 39 38 37 37 37 37 39 41 43 45 47 48 49 50 51 51 51 50 50 51 52 52 52 53 53 54 53 54 54 54 54 54 54 53 54 54 53 53 54 53 53 53 53 54
18 16 14 15 19 22 24 25 24 24 23 23 23 23 23 22 22 24 24 24 23 24 25 27 27 29 31 34 37 38 39 39 40 40 41 41 41 41 40 39 39 38 37 37 37 37 36 36 35 34 37 38 41 44 44 46 49 50 50 51 51 50 51 51 51 51 53 53 54 54 53 53 54 54 54 54 54 54 54 54 54 53 53 53 53 53 53
19 19 17 18 21 23 23 24 25 24 23 23 25 24 24 24 23 23 24 23 23 25 27 27 28 29 30 31 34 37 38 38 38 38 38 38 38 38 38 39 39 39 39 38 38 36 35 36 36 36 35 34 35 38 40 43 45 45 48 49 50 50 50 51 51 52 52 53 53 53 53 53 53 53 53 53 53 53 53 53 53 53 53 53 53 53 52
17 18 17 21 23 23 24 25 26 25 24 22 24 23 24 22 22 23 23 22 19 24 26 29 27 26 26 26 28 31 35 38 38 38 37 37 37 37 37 38 38 39 39 40 39 39 37 35 34 36 35 34 34 34 36 36 38 40 43 46 47 47 48 49 50 51 51 52 51 51 51 51 52 53 53 53 52 52 52 52 53 52 52 52 52 51 51
15 16 17 17 20 17 15 21 25 25 24 24 24 24 26 26 23 20 19 19 23 25 30 25 25 26 25 25 26 26 27 29 35 38 39 38 38 38 38 37 37 38 39 40 39 39 39 38 35 35 36 35 34 35 36 37 38 39 39 40 42 44 45 46 47 48 49 50 50 49 49 50 51 52 52 52 50 49 49 49 49 50 51 51 51 50 50
13 18 22 23 17 7 11 24 28 29 24 23 22 23 24 25 26 22 24 24 25 25 26 25 25 25 25 26 27 27 26 25 25 28 35 39 38 36 36 38 38 38 38 39 39 39 39 40 39 38 38 37 37 37 39 37 36 35 35 36 38 40 42 44 44 45 45 46 47 47 47 47 48 50 51 50 48 47 47 47 49 49 49 49 50 49 49
12 17 18 14 6 9 24 27 28 27 25 23 23 23 24 25 25 25 23 24 24 25 26 26 25 26 25 25 25 25 26 26 25 25 27 33 37 35 32 31 35 40 40 40 40 39 40 41 41 40 39 38 38 35 37 36 36 35 35 34 35 37 38 38 39 41 42 41 42 42 42 42 42 44 47 44 44 45 46 47 48 48 48 47 46 46 46
11 9 6 5 6 22 26 26 27 29 25 23 21 20 21 24 24 24 22 24 25 25 25 26 27 25 24 24 23 24 25 27 26 25 26 26 30 33 34 33 34 37 40 42 41 40 42 42 42 40 39 40 39 37 36 36 35 36 35 35 36 35 36 38 39 40 40 39 39 39 38 38 38 39 39 39 40 41 40 40 40 41 40 42 44 43 42
10 7 8 12 23 22 22 22 22 23 19 21 21 17 17 23 23 23 21 22 24 24 24 25 25 27 27 21 20 21 23 25 26 26 25 26 25 27 28 28 30 34 35 39 43 43 42 42 43 43 41 42 41 39 37 35 36 33 35 35 36 37 38 36 38 38 38 38 37 37 36 35 36 37 37 36 37 38 36 36 38 39 39 41 41 41 39
16 11 10 14 13 11 18 22 26 28 28 26 25 19 18 24 22 25 21 21 23 24 23 23 24 27 23 19 18 20 22 24 26 25 25 25 25 23 24 25 26 28 30 33 37 40 42 40 40 43 43 44 41 40 40 38 37 36 33 35 37 38 37 38 39 39 38 37 37 37 35 34 35 36 35 35 35 36 37 37 38 39 39 41 39 39 38
11 8 10 6 9 7 13 20 24 26 27 26 25 21 17 19 22 23 20 20 21 22 22 21 23 22 19 19 21 19 22 23 23 24 24 24 25 24 24 25 27 27 28 32 33 34 34 35 35 40 42 41 40 40 40 39 40 39 38 36 34 33 34 35 36 38 37 37 36 36 35 35 36 36 36 37 36 37 37 38 38 39 40 40 38 37 36
11 10 7 7 8 13 20 24 25 24 24 26 20 12 9 18 22 20 20 20 20 21 23 22 20 20 17 19 19 22 23 23 23 24 24 25 25 24 25 26 28 29 30 27 27 29 32 32 35 35 36 37 37 38 38 39 37 36 37 39 36 37 36 37 38 38 38 38 37 37 35 36 38 37 39 39 37 38 36 39 39 38 39 39 38 35 34
17 15 11 15 16 22 24 24 25 21 27 22 13 8 14 20 22 21 21 21 21 21 21 22 21 21 22 22 22 23 24 24 26 26 27 26 26 25 25 26 33 26 27 28 26 26 27 30 30 32 33 33 33 33 34 34 35 38 40 39 41 40 38 36 36 37 39 39 38 37 37 36 38 39 39 38 37 38 39 38 38 38 37 37 36 34 32
13 11 13 15 16 19 23 24 24 22 20 14 12 16 21 22 22 23 23 22 22 23 21 21 20 22 25 27 25 24 26 27 27 28 27 28 28 28 30 32 30 28 28 28 28 27 28 28 30 30 31 33 31 31 31 31 30 33 39 39 38 37 37 33 35 36 36 38 39 39 40 39 38 38 39 39 38 38 37 37 37 36 35 36 35 33 32
16 14 13 14 14 20 24 25 21 25 18 17 20 23 24 25 23 23 23 24 23 24 23 23 23 24 24 24 24 25 27 28 28 28 28 29 28 29 29 28 29 30 28 28 28 28 29 30 29 30 30 30 30 32 30 30 31 32 34 37 39 39 37 35 37 37 38 39 39 41 41 40 39 38 38 39 39 39 38 37 37 36 35 34 34 32 31
15 14 12 13 20 21 26 24 19 21 22 23 25 24 23 26 26 25 23 24 24 25 24 24 25 25 25 26 26 27 28 28 29 29 29 30 30 30 30 29 29 32 29 29 29 29 30 31 31 31 30 30 31 31 30 31 33 34 34 34 35 36 36 36 37 38 37 37 37 37 38 37 35 34 35 38 39 38 39 39 37 36 34 33 34 33 31
21 19 20 22 24 24 25 25 24 24 26 28 27 27 26 25 25 26 25 24 25 25 25 25 25 24 25 26 27 27 28 29 29 29 30 30 30 30 30 30 31 31 30 30 30 30 30 30 30 31 31 31 31 30 30 33 34 35 35 35 35 37 36 36 36 35 36 37 36 35 35 36 33 34 33 35 35 37 38 36 36 36 35 35 36 34 32
25 26 26 28 27 26 25 27 29 26 27 27 28 26 24 25 25 25 25 26 26 27 26 26 26 26 26 26 27 28 29 29 30 31 31 31 31 32 32 32 32 33 33 33 33 32 32 31 31 32 31 32 31 31 31 34 34 34 34 34 34 34 33 33 36 37 37 36 35 35 35 34 33 34 34 36 35 37 36 36 35 35 34 33 32 33 31
19 17 24 24 24 27 27 26 27 28 29 26 28 26 26 26 26 27 27 26 27 27 27 28 27 27 27 27 28 29 29 30 30 30 30 30 31 31 31 32 34 33 33 33 33 33 33 33 32 32 32 32 32 32 33 33 33 34 34 34 34 34 34 34 33 34 35 35 34 35 37 36 36 35 35 36 37 38 38 37 35 33 34 34 33 32 32
13 13 21 23 24 26 27 27 26 25 26 26 28 27 27 27 27 28 28 27 28 28 28 28 27 27 27 28 27 28 27 28 28 28 28 28 28 29 30 30 31 31 31 31 32 32 33 33 33 34 34 33 33 33 33 33 33 33 33 33 32 32 32 33 34 34 34 34 34 34 33 33 34 33 34 36 38 38 38 37 36 35 34 34 35 35 35
19 19 21 22 23 24 25 27 27 26 26 26 27 27 28 28 28 28 28 29 29 28 28 28 27 26 26 27 27 27 27 27 27 27 27 28 28 28 28 28 29 29 29 30 30 30 30 31 31 32 32 33 33 33 33 33 33 33 33 32 33 32 33 33 33 33 34 34 36 35 33 32 29 30 32 34 35 36 36 37 39 38 37 36 37 36 35
12 14 18 20 16 12 18 23 25 26 27 27 27 27 28 28 28 27 28 27 28 28 28 27 26 25 25 26 25 26 27 27 27 28 28 28 28 28 28 29 28 28 30 29 29 29 29 29 30 30 30 31 32 33 33 33 33 33 33 34 33 33 33 33 33 33 34 34 34 34 34 33 33 32 31 34 33 34 34 38 39 38 36 37 37 36 35
9 17 22 23 18 18 21 24 26 27 28 28 28 28 28 28 28 27 27 27 26 27 27 28 26 25 25 26 26 26 27 28 29 29 29 29 29 29 29 29 29 29 28 29 29 29 29 30 30 30 31 32 34 34 34 34 34 34 34 34 34 34 34 33 33 33 34 33 33 34 34 34 34 34 32 32 33 34 35 35 36 37 36 36 35 35 35
20 21 24 25 22 21 24 26 26 28 28 28 28 29 29 29 28 27 26 26 26 26 26 27 28 27 26 26 26 27 28 29 29 29 30 30 30 30 30 29 29 29 29 28 28 29 29 30 30 31 32 32 32 33 35 35 35 35 35 35 34 35 35 34 34 34 34 33 34 34 33 33 33 34 34 32 31 32 33 34 35 36 35 35 35 34 34
21 24 25 25 24 24 25 26 27 28 32 30 28 29 28 28 28 28 27 27 26 26 26 26 26 26 26 27 28 29 29 30 30 30 31 31 30 29 28 28 28 29 29 29 29 29 30 30 30 30 30 30 31 32 33 34 34 35 35 35 35 35 34 34 34 34 34 34 34 34 33 33 32 33 34 34 34 30 31 33 33 34 34 34 34 34 33
26 25 26 27 27 27 27 27 28 28 28 28 28 28 30 34 31 30 27 27 27 27 27 27 27 27 27 28 30 30 30 30 31 31 31 30 29 28 28 28 29 30 30 31 31 31 31 31 31 31 31 31 32 32 33 33 33 33 34 34 34 34 34 34 34 34 35 35 35 34 34 34 34 34 35 35 34 33 31 31 31 32 32 33 33 33 33
27 28 27 24 24 25 25 25 25 27 28 28 26 27 27 27 31 32 28 29 29 29 28 28 28 28 28 29 31 31 31 31 31 31 30 29 29 29 30 31 31 31 32 32 32 32 32 33 32 32 32 33 33 33 33 33 33 33 33 33 33 33 33 33 34 35 35 35 36 36 35 35 35 35 34 33 33 33 34 34 32 30 26 28 31 32 31
26 26 24 22 22 24 25 27 26 28 29 26 26 26 27 26 27 27 27 28 28 28 28 27 27 28 28 29 30 31 31 30 30 29 29 29 30 31 31 32 32 32 32 32 33 33 33 33 33 34 34 34 34 34 33 33 33 32 32 32 32 33 33 33 34 35 34 34 36 36 36 36 35 36 34 32 32 31 31 31 30 28 26 26 27 32 32
25 26 26 25 26 25 26 28 27 27 27 27 30 27 26 26 26 26 27 27 27 27 26 27 27 28 29 30 31 31 31 30 29 29 30 30 31 32 32 33 33 32 32 33 33 34 34 34 34 34 34 35 35 35 35 35 34 34 33 33 33 33 33 33 33 35 35 34 34 35 34 34 34 34 33 32 31 31 30 30 29 28 28 28 29 29 31
25 26 28 28 28 28 28 27 27 27 26 26 27 27 27 26 27 26 26 26 26 26 26 26 27 28 30 30 31 32 31 30 30 30 31 31 31 32 32 33 32 33 33 33 33 33 33 33 33 33 34 35 36 36 36 36 36 36 36 35 35 34 34 34 34 34 34 35 35 34 34 33 33 33 32 31 30 30 30 29 29 29 28 27 28 27 28
26 27 27 27 27 27 28 28 27 26 26 27 27 27 27 27 27 27 26 25 25 26 26 27 27 28 28 30 31 32 32 31 30 30 30 30 31 31 31 32 31 30 31 31 32 33 33 33 34 35 36 37 38 38 39 39 39 38 38 37 37 35 34 34 34 35 35 34 34 34 33 32 32 31 31 30 29 29 29 29 28 28 28 27 27 27 28
25 26 27 26 27 27 27 27 26 26 26 26 26 26 26 27 26 27 25 25 26 26 27 27 28 28 29 30 31 31 30 30 30 30 30 30 30 31 31 31 31 32 32 32 32 33 33 33 34 35 36 37 37 38 39 38 38 39 39 37 39 38 35 34 35 34 34 34 33 33 33 32 31 31 30 30 29 29 28 28 28 28 28 28 28 28 29
25 25 26 26 27 26 26 26 25 25 25 25 23 25 25 26 27 28 27 27 27 27 27 28 28 29 30 31 31 30 30 30 29 28 29 30 30 31 31 32 32 32 32 33 33 33 33 33 34 35 36 36 38 38 38 38 38 38 38 38 39 39 36 34 35 36 35 34 33 33 32 32 32 29 28 30 29 29 28 28 28 28 28 29 29 30 30
26 25 26 27 28 27 26 27 26 25 25 25 25 25 26 27 27 28 27 28 28 27 27 28 28 28 29 30 30 29 29 29 28 28 28 29 30 31 31 32 32 32 33 33 33 33 33 33 34 35 35 37 38 38 38 38 38 37 37 38 38 38 37 36 35 36 35 34 33 33 32 31 31 31 30 29 29 29 28 29 29 29 30 31 32 31 31
26 26 26 26 26 27 27 27 27 26 25 23 24 24 26 26 26 28 29 29 29 28 28 27 28 28 28 29 29 28 29 28 28 28 28 29 30 31 31 31 30 31 31 32 32 31 32 32 33 34 35 37 38 37 37 37 37 38 38 38 37 38 37 36 37 35 34 34 33 33 32 32 31 31 30 29 29 28 28 27 27 30 30 30 31 31 31
28 28 29 28 26 26 27 26 27 26 26 23 23 23 26 26 25 25 27 28 29 29 28 27 27 26 27 29 28 28 28 28 28 28 28 29 30 30 29 29 28 28 29 29 30 30 31 32 32 32 34 37 37 37 37 37 37 37 37 37 37 36 36 36 35 34 33 33 33 32 32 31 31 30 30 30 30 30 29 31 30 30 30 30 31 31 31
28 29 28 27 27 27 27 27 27 27 26 26 25 25 26 24 23 24 27 29 28 28 28 26 24 26 28 30 29 28 28 28 28 28 28 29 30 30 28 27 27 27 28 28 28 30 31 31 31 32 33 36 37 37 35 34 37 37 37 37 37 36 36 36 35 35 34 34 33 33 32 32 32 32 31 32 31 31 31 31 30 31 31 30 31 31 31
27 28 27 27 27 27 26 27 26 26 25 24 22 24 24 21 21 22 22 24 24 26 26 25 24 26 29 31 29 27 27 28 28 28 29 29 29 29 27 26 26 27 26 27 29 30 31 31 31 32 31 33 36 36 35 34 34 37 37 36 36 35 35 35 35 34 34 34 33 34 34 33 33 33 33 34 33 32 31 31 31 31 31 31 31 31 30
28 27 26 26 27 27 27 26 26 26 25 25 23 22 23 23 22 22 20 21 23 25 24 24 25 26 28 29 28 27 27 27 28 28 28 28 28 28 26 26 26 27 28 29 30 30 30 31 31 31 31 31 33 35 34 34 34 37 36 37 36 36 35 35 35 34 34 34 34 34 34 34 34 33 33 33 32 31 31 31 31 30 31 31 30 30 30
27 27 28 27 27 27 26 26 26 26 24 23 22 21 22 21 21 21 20 20 21 25 25 24 24 23 25 27 27 26 26 27 27 27 27 27 27 26 25 25 25 26 27 29 29 29 30 30 30 30 30 31 31 32 33 33 34 36 36 36 35 35 35 35 35 35 34 34 34 33 34 33 33 32 32 31 31 31 30 30 30 30 30 30 30 30 30
28 27 27 27 27 26 26 26 26 27 25 24 23 23 22 21 22 20 19 20 21 24 25 24 23 24 24 25 25 25 24 25 25 25 26 26 24 24 23 23 24 25 27 28 29 29 30 29 30 29 30 30 31 31 31 31 32 33 34 34 34 34 34 34 34 34 34 34 33 33 33 32 32 31 31 30 30 30 30 30 30 30 29 29 29 28 28
28 27 27 27 27 27 26 26 26 26 26 26 24 23 22 22 22 19 19 20 22 24 24 25 25 23 24 24 24 24 24 24 24 24 24 24 23 22 22 23 24 25 28 28 28 28 28 28 29 30 30 30 30 31 31 31 31 31 31 31 31 32 32 32 32 32 32 31 31 31 31 31 30 30 30 29 29 29 29 28 28 28 28 28 28 28 28
28 27 28 28 28 27 27 27 26 26 25 26 23 23 22 22 22 21 22 22 22 22 23 24 25 25 25 23 23 23 23 23 23 23 23 23 23 23 23 24 24 25 28 27 27 27 28 28 28 29 30 30 30 30 30 30 30 30 30 30 30 30 30 30 30 30 29 29 29 29 29 29 29 29 28 28 27 28 27 27 27 27 27 27 27 27 27
29 29 28 28 28 28 28 27 26 26 25 26 23 23 22 22 22 21 21 20 20 22 22 23 23 23 24 23 23 22 22 22 22 22 22 22 22 22 24 25 24 26 27 27 26 27 27 28 28 29 30 30 30 30 30 29 29 29 29 29 29 29 29 29 28 28 28 29 28 28 28 28 28 28 27 27 27 27 27 27 26 26 26 26 26 26 26
29 29 29 29 29 28 28 28 27 27 26 24 22 22 22 22 22 21 21 21 20 20 22 22 23 23 23 23 22 21 22 22 22 21 21 21 20 21 24 26 25 25 27 27 26 26 27 27 28 28 28 29 29 29 29 29 29 29 29 29 29 29 29 29 29 28 28 28 28 28 28 28 28 28 27 27 27 26 26 26 26 26 26 26 26 26 26
29 30 29 29 29 29 29 29 29 27 24 21 19 21 23 22 21 21 21 20 20 20 21 22 22 23 23 23 23 21 21 22 21 22 22 21 21 22 25 25 24 26 26 26 26 26 26 27 27 27 28 28 28 28 28 28 28 28 28 29 29 29 28 29 28 29 28 28 28 28 28 27 27 27 27 27 27 27 27 27 26 26 26 26 26 26 26
30 30 30 29 29 29 29 29 28 26 24 21 19 19 21 22 21 20 20 20 19 20 20 21 22 22 22 22 21 20 19 20 20 21 21 22 23 24 24 25 26 26 25 25 25 25 26 27 27 27 27 27 27 27 27 27 27 27 27 28 28 28 28 28 28 28 29 29 29 29 29 28 28 28 28 28 27 27 27 27 27 27 27 28 28 28 28
30 30 31 31 30 30 29 27 27 26 24 23 22 21 20 22 21 20 20 20 20 20 20 20 21 22 22 21 21 21 21 21 18 19 20 21 22 23 23 22 24 25 25 25 25 26 27 27 27 26 26 26 26 26 26 26 27 27 27 27 27 27 27 27 28 28 28 28 28 27 27 27 28 28 28 28 28 28 28 28 28 28 29 29 28 28 28
29 30 30 31 31 29 29 29 28 28 27 25 23 20 20 21 21 20 20 19 19 19 19 20 20 20 21 22 22 21 22 22 20 18 20 21 22 22 22 24 25 25 23 22 23 23 26 26 26 26 26 25 25 25 25 25 26 26 26 26 26 26 26 26 26 27 27 27 27 27 27 27 27 27 27 28 28 28 29 29 29 29 28 28 28 28 28
29 29 29 29 29 29 29 29 29 29 29 26 23 22 21 21 19 18 21 18 17 20 18 19 20 20 20 20 21 21 21 22 22 22 22 22 21 23 23 23 23 25 25 23 22 22 25 25 25 25 25 24 24 24 24 24 24 24 24 25 25 25 26 27 27 27 27 27 27 26 26 26 26 27 27 27 27 28 28 28 28 28 28 27 27 26 26
27 29 30 30 30 31 31 30 30 30 29 26 24 21 22 20 18 20 20 20 18 19 17 18 19 19 19 19 19 19 20 21 22 23 21 21 22 24 25 24 23 23 22 21 20 19 20 20 21 22 23 23 23 23 23 23 22 23 23 23 23 23 24 24 23 24 24 25 25 26 25 25 25 25 25 25 26 26 26 26 26 26 26 26 26 26 26
28 29 29 30 30 30 31 31 31 30 29 27 24 22 21 20 19 20 21 23 18 17 16 17 17 18 19 19 19 19 20 20 21 21 23 23 23 22 23 24 21 21 21 20 20 22 20 21 24 24 24 22 21 21 23 23 22 22 22 23 23 22 23 22 22 22 22 24 24 24 24 24 23 23 23 24 24 24 24 24 23 22 22 22 24 25 25